Regional Weather Roundup
Issued by NWS Charleston, WV

Home | Current Version | Previous Version | Text Only | Print | Product List | Glossary Off
Versions: 1 2 3 4 5 6 7 8 9 10 11 12 13 14 15 16 17 18 19 20 21 22 23 24 25 26 27

000
ASUS41 KRLX 221110
RWRRLX
West Virginia Regional Weather Roundup
National Weather Service Charleston WV
700 AM EDT WED OCT 22 2014

Note: "fair" indicates few or no clouds below 12,000 feet with no
significant weather and/or obstructions to visibility.

WVZ003-221200-
Northern Panhandle of West Virginia

CITY           SKY/WX    TMP DP  RH WIND       PRES   REMARKS
WHEELING       CLOUDY    47  42  83 NW9       30.11R
$$

WVZ009-221200-
Northwest West Virginia

CITY           SKY/WX    TMP DP  RH WIND       PRES   REMARKS
PARKERSBURG    CLOUDY    47  44  90 NW6       30.16R
$$

WVZ006-221200-
Western West Virginia

CITY           SKY/WX    TMP DP  RH WIND       PRES   REMARKS
HUNTINGTON     CLOUDY    45  41  86 NW6       30.17R
$$

WVZ015-221200-
West Central West Virginia

CITY           SKY/WX    TMP DP  RH WIND       PRES   REMARKS
CHARLESTON     LGT RAIN  45  42  89 NW9       30.14R FOG
$$

WVZ022-031-221200-
North Central West Virginia

CITY           SKY/WX    TMP DP  RH WIND       PRES   REMARKS
CLARKSBURG     LGT RAIN  46  46 100 VRB6      30.08R
MORGANTOWN     CLOUDY    50  45  83 NW8       30.07R
$$

WVZ025-035-042-045-221200-
Southern West Virginia

CITY           SKY/WX    TMP DP  RH WIND       PRES   REMARKS
BECKLEY        CLOUDY    40  38  93 NW8G17    30.08R FOG
LOGAN          CLOUDY    43  43 100 N5        30.14R FOG
BLUEFIELD      CLOUDY    41  37  86 NW8       30.09R
LEWISBURG      CLOUDY    45  38  76 CALM      30.05R
$$

WVZ047-221200-
Northern Mountains of West Virginia

CITY           SKY/WX    TMP DP  RH WIND       PRES   REMARKS
ELKINS         LGT RAIN  44  43  96 N5        30.06R FOG
$$

WVZ052-221200-
Eastern Panhandle of West Virginia

CITY           SKY/WX    TMP DP  RH WIND       PRES   REMARKS
MARTINSBURG    CLOUDY    53  45  74 N13       29.95R
PETERSBURG     CLOUDY   N/A N/A N/A CALM      30.02R
$$



USA.gov is the U.S. government's official web portal to all federal, state and local government web resources and services.